• Join FlightAware (Why Join?)
  • Login
  • US Flag 
04:31PM EDT


 

Airport Tracker/Info


-or-


 

Live Flight TrackerFlight Track Log ✈ ACA831 ✈ 17-Jun-2013 ✈ CYUL - CYYZ

Flight Track Log - Related Links

Times and Time Zones

All times are in EDT time to prevent confusion due to time zone crossing. See the ACA831 flight status page for this flight to view local times or setup timezone preferences in your user account.

Time Position Orientation Groundspeed Altitude Reporting Facility
EDT Latitude Longitude Course Direction KTS MPH feet Rate Location/Type
04:20PM 45.4620 -73.7490 267° West 14 16  Level FlightAware
04:21PM 45.4640 -73.7500 341° North 15 17  Level FlightAware
04:21PM 45.4660 -73.7500 360° North 17 20  Level FlightAware
04:22PM 45.4680 -73.7500 360° North 16 18 60 Level FlightAware
04:22PM 45.4690 -73.7500 360° North 11 13 60 Level FlightAware
04:22PM 45.4700 -73.7490 35° Northeast 13 15 60 Level FlightAware
04:23PM 45.4710 -73.7490 360° North 15 17 60 Level FlightAware
04:23PM 45.4720 -73.7470 55° Northeast 17 20 60 Level FlightAware
04:23PM 45.4730 -73.7460 35° Northeast 13 15 60 Level FlightAware
04:24PM 45.4740 -73.7440 55° Northeast 16 18 60 Level FlightAware
04:24PM 45.4760 -73.7410 46° Northeast 11 13 60 Level FlightAware
04:25PM 45.4770 -73.7410 360° North 9 10 60 Level FlightAware
04:25PM 45.4780 -73.7400 35° Northeast 12 14 60 Level FlightAware
04:26PM 45.4790 -73.7380 55° Northeast 15 17 60 Level FlightAware
04:26PM 45.4800 -73.7370 35° Northeast 11 13 120 Level FlightAware
04:26PM 45.4800 -73.7360 90° East 7 8 120 Level FlightAware
04:27PM 45.4820 -73.7340 35° Northeast 12 14 120 Level FlightAware
04:28PM 45.4830 -73.7350 325° Northwest 11 13 180 Level FlightAware
04:28PM 45.4830 -73.7360 270° West 6 7 300 Level FlightAware
04:29PM 45.4800 -73.7400 223° Southwest 80 92 360 Level FlightAware
04:30PM 45.4680 -73.7550 221° Southwest 159 183 500 2,160 Climbing FlightAware
04:30PM 45.4510 -73.7770 222° Southwest 158 182 2,000 2,400 Climbing FlightAware
04:31PM 45.4310 -73.8010 220° Southwest 211 243 2,900 2,400 Climbing FlightAware
04:31PM 45.4080 -73.8320 223° Southwest 237 273 4,400 2,820 Climbing FlightAware
04:31PM 45.4040 -73.8450 246° West 238 274 4,800 3,120 Climbing FlightAware
04:31PM 45.4010 -73.8620 256° West 242 278 5,500 2,880 Climbing FlightAware
04:32PM 45.4020 -73.9110 272° West 240 276 6,800 1,500 Climbing FlightAware
04:32PM 45.4040 -73.9600 273° West 243 280 7,000 300 Climbing FlightAware
04:33PM 45.4050 -73.9940 272° West 242 278 7,100 120 Climbing FlightAware
04:33PM 45.4060 -74.0310 272° West 242 278 7,100  Level FlightAware
04:34PM 45.4070 -74.0700 272° West 238 274 7,100  Level FlightAware
04:34PM 45.4080 -74.1180 272° West 240 276 7,100 1,080 Level FlightAware
04:34PM 45.4100 -74.1580 274° West 244 281 8,100 3,000 Climbing FlightAware
04:35PM 45.4100 -74.1790 270° West 246 283 9,100 3,060 Climbing FlightAware
04:35PM 45.4120 -74.2490 272° West 276 318 11,000 2,460 Climbing FlightAware
04:36PM 45.4140 -74.3440 272° West 339 390 12,600 3,000 Climbing FlightAware
04:37PM 45.4100 -74.4670 267° West 352 405 16,000 3,600 Climbing FlightAware
04:38PM 45.3900 -74.5920 257° West 360 414 19,200 3,180 Climbing FlightAware
04:39PM 45.3720 -74.6970 256° West 373 429 21,300 2,280 Climbing FlightAware
04:39PM 45.3540 -74.8030 256° West 405 466 22,500 1,920 Climbing FlightAware
04:40PM 45.3370 -74.9050 257° West 417 480 24,000 2,400 Climbing FlightAware
04:41PM 45.3170 -75.0210 256° West 425 489 25,800 2,760 Climbing FlightAware
04:42PM 45.2960 -75.1370 256° West 421 484 28,000 2,880 Climbing FlightAware
04:42PM 45.2760 -75.2560 257° West 414 476 30,100 2,460 Climbing FlightAware
04:43PM 45.2580 -75.3590 256° West 414 476 31,500 2,040 Climbing FlightAware
04:44PM 45.2380 -75.4710 256° West 412 474 32,900 1,740 Climbing FlightAware
04:44PM 45.2220 -75.5630 256° West 416 479 33,800 780 Climbing FlightAware
04:45PM 45.2000 -75.6850 256° West 425 489 34,000 120 Climbing FlightAware
04:46PM 45.1780 -75.8050 255° West 423 487 34,000  Level FlightAware
04:46PM 45.1610 -75.8970 255° West 422 486 34,000  Level FlightAware
04:47PM 45.1360 -76.0350 256° West 419 482 34,000  Level FlightAware
04:48PM 45.1180 -76.1340 256° West 417 480 34,000  Level FlightAware
04:49PM 45.0930 -76.2460 252° West 419 482 34,000  Level FlightAware
04:49PM 45.0610 -76.3320 242° Southwest 420 483 34,000  Level FlightAware
04:50PM 45.0170 -76.4450 241° Southwest 420 483 34,000  Level FlightAware
04:51PM 44.9790 -76.5390 240° Southwest 420 483 34,000  Level FlightAware
04:51PM 44.9350 -76.6490 241° Southwest 419 482 34,000  Level FlightAware
04:52PM 44.9000 -76.7380 241° Southwest 419 482 34,000  Level FlightAware
04:53PM 44.8540 -76.8510 240° Southwest 417 480 34,000  Level FlightAware
04:53PM 44.8160 -76.9450 240° Southwest 417 480 34,000  Level FlightAware
04:54PM 44.7780 -77.0400 241° Southwest 417 480 34,000  Level FlightAware
04:55PM 44.7360 -77.1440 240° Southwest 416 479 34,000  Level FlightAware
04:55PM 44.7000 -77.2330 240° Southwest 415 478 34,000  Level FlightAware
04:56PM 44.6560 -77.3410 240° Southwest 414 476 34,000  Level FlightAware
04:57PM 44.6180 -77.4350 240° Southwest 413 475 34,000  Level FlightAware
04:58PM 44.5790 -77.5290 240° Southwest 412 474 34,000  Level FlightAware
04:58PM 44.5400 -77.6230 240° Southwest 412 474 34,000  Level FlightAware
04:59PM 44.4980 -77.7260 240° Southwest 411 473 34,000 -120 Level FlightAware
05:00PM 44.4600 -77.8170 240° Southwest 411 473 33,900 -600 Descending FlightAware
05:00PM 44.4170 -77.9210 240° Southwest 410 472 33,200 -1,080 Descending FlightAware
05:01PM 44.3800 -78.0080 239° Southwest 412 474 32,400 -1,140 Descending FlightAware
05:02PM 44.3350 -78.1150 240° Southwest 407 468 31,600 -900 Descending FlightAware
05:02PM 44.3030 -78.1910 240° Southwest 400 460 31,200 -1,500 Descending FlightAware
05:03PM 44.2570 -78.3010 240° Southwest 384 442 29,500 -2,280 Descending FlightAware
05:04PM 44.2270 -78.3720 239° Southwest 378 435 28,100 -2,400 Descending FlightAware
05:05PM 44.1860 -78.4680 239° Southwest 372 428 26,300 -2,340 Descending FlightAware
05:05PM 44.1470 -78.5600 239° Southwest 366 421 24,600 -2,280 Descending FlightAware
05:06PM 44.1140 -78.6380 240° Southwest 361 415 23,100 -2,280 Descending FlightAware
05:07PM 44.0740 -78.7290 239° Southwest 357 411 21,400 -2,340 Descending FlightAware
05:07PM 44.0450 -78.7980 240° Southwest 354 407 20,000 -2,280 Descending FlightAware
05:08PM 44.0060 -78.8840 238° Southwest 350 403 18,400 -1,740 Descending FlightAware
05:09PM 43.9670 -78.9670 237° Southwest 330 380 17,400 -960 Descending FlightAware
05:09PM 43.9370 -79.0340 238° Southwest 301 346 17,100 -960 Descending FlightAware
05:10PM 43.9040 -79.1060 238° Southwest 284 327 16,100 -1,260 Descending FlightAware
05:11PM 43.8660 -79.1880 237° Southwest 277 319 15,000 -960 Descending FlightAware
05:12PM 43.8400 -79.2450 238° Southwest 258 297 14,600 -780 Descending FlightAware
05:12PM 43.8150 -79.2990 237° Southwest 243 280 14,000 -1,200 Descending FlightAware
05:13PM 43.7890 -79.3580 239° Southwest 237 273 12,900 -1,440 Descending FlightAware
05:13PM 43.7840 -79.3790 252° West 233 268 12,600 -1,200 Descending FlightAware
05:14PM 43.7780 -79.4390 262° West 229 264 11,800 -1,200 Descending FlightAware
05:15PM 43.7720 -79.4960 262° West 226 260 11,000 -1,140 Descending FlightAware
05:16PM 43.7660 -79.5600 263° West 222 255 10,200 -1,140 Descending FlightAware
05:16PM 43.7620 -79.5940 261° West 220 253 9,700 -1,080 Descending FlightAware
05:16PM 43.7590 -79.6230 262° West 218 251 9,400 -900 Descending FlightAware
05:17PM 43.7570 -79.6490 264° West 210 242 9,100 -600 Descending FlightAware
05:17PM 43.7540 -79.6760 261° West 200 230 9,000 -180 Descending FlightAware
05:17PM 43.7510 -79.7070 262° West 202 232 9,000 -300 Level FlightAware
05:18PM 43.7470 -79.7240 252° West 208 239 8,800 -1,020 Descending FlightAware
05:18PM 43.7370 -79.7400 229° Southwest 211 243 8,500 -1,380 Descending FlightAware
05:18PM 43.7160 -79.7700 226° Southwest 211 243 7,800 -1,320 Descending FlightAware
05:19PM 43.7010 -79.7920 227° Southwest 215 247 7,300 -1,200 Descending FlightAware
05:19PM 43.6790 -79.8230 226° Southwest 208 239 6,700 -1,200 Descending FlightAware
05:20PM 43.6590 -79.8510 225° Southwest 200 230 6,100 -1,200 Descending FlightAware
05:20PM 43.6440 -79.8750 229° Southwest 201 231 5,600 -1,080 Descending FlightAware
05:21PM 43.6310 -79.8930 225° Southwest 199 229 5,200 -900 Descending FlightAware
05:21PM 43.6170 -79.9100 221° Southwest 211 243 5,000 -720 Descending FlightAware
05:21PM 43.6070 -79.9130 192° South 221 254 4,900 -960 Descending FlightAware
05:22PM 43.5740 -79.8980 162° South 219 252 4,300 -1,260 Descending FlightAware
05:22PM 43.5640 -79.8840 135° Southeast 219 252 4,000 -1,680 Descending FlightAware
05:22PM 43.5610 -79.8710 108° East 221 254 3,700 -1,200 Descending FlightAware
05:23PM 43.5680 -79.8290 77° East 211 243 3,200 -720 Descending FlightAware
05:23PM 43.5820 -79.7970 59° Northeast 181 208 3,000 -540 Descending FlightAware
05:24PM 43.5990 -79.7740 44° Northeast 186 214 2,700 -780 Descending FlightAware
05:24PM 43.6150 -79.7490 49° Northeast 179 206 2,300 -960 Descending FlightAware
05:24PM 43.6200 -79.7430 41° Northeast 176 203 2,100 -900 Descending FlightAware
05:25PM 43.6370 -79.7170 48° Northeast 168 193 1,700 -900 Descending FlightAware
05:25PM 43.6500 -79.6990 45° Northeast 147 169 1,300 -900 Descending FlightAware
05:25PM 43.6560 -79.6900 47° Northeast 143 165 1,100 -480 Descending FlightAware
05:26PM 43.6730 -79.6660 46° Northeast 140 161 900 -300 Descending FlightAware